THOR ABLESTAR DEB, 354

Orbit data source: Space-Track

THOR ABLESTAR DEB, 354 is space debris in LEO originally from a launch on Thu, 29 Jun 1961 UTC launched from the Air Force Eastern Test Range (AFETR). Debris objects in space refer to the collection of defunct objects orbiting the Earth. Examples of debris include non-operational satellites, rocket bodies, and fragments generated from explosions, collisions, or faulty payload assembly.

Loading next visibility...
Identifier
354, 1961-015DU
Orbit
LEO
Country
Flag of USUS
Related business
Manufacturer
Unknown
Mission
Spacecraft
Bus & Motor
Unknown
Mass
Unknown
Launch date (UTC)
1961-06-29 (65 years ago)
Launch vehicle
Unknown
Launch site
Air Force Eastern Test Range (AFETR)
Object type
Payload
Rocket body
Debris
Shape & HBR
Unknown shape, 0.2 m
Radar Cross Section
Medium (>0.1 m² and <1 m²)

Expand to show TLE details & history
Last TLE update: 5 days ago

TLE from 5 days ago
0 THOR ABLESTAR DEB
1 00354U 61015DU  26155.07303638  .00000083  00000-0  21764-3 0  9998
2 00354  67.0649 129.6595 0171185 317.2748 119.6654 13.49443598476108
Epoch: 2026-06-04T01:45Z
TLE epoch observation values (Epoch: 2026-06-04T01:45:10.343Z)
Latitude
64.64445°
Longitude
-86.48618°
Altitude
1,149.419 km
Speed
7.253 km/s
True Right ascension
12h 49m 19s
True Declination
64° 31' 05"
Sunlit
Object was in daylight at epoch
Visualization orbit readout
Latitude
Unknown
Longitude
Unknown
Altitude
Unknown
Speed
Unknown
Apparent Right ascension
Unknown
Apparent Declination
Unknown
Sunlit
N/A
Visualization observer readout
Local Sidereal Time
03:24:43
Azimuth
Unknown
Elevation
Unknown
Doppler factor
Unknown
Orbital elements
Apogee altitude
1,200.249 km
Perigee altitude
945.155 km
Semi-major axis
7,450.839 km
Eccentricity
0.01712
Inclination
67.0649°
RAAN
129.6595°
Arg. of periapsis
317.2748°
True anomaly
121.35181°
Mean anomaly
119.6654°
Eccentric anomaly
120.51041°
Mean motion
3.3747 °/min
Orbital period
106.68 mins
BSTAR
0.00021764
Loading maneuver chart data...
Computing Atmospheric mass density...

Documentation

Showing up to 5 results
|